Weather History for Hermiston, OR

Change the Weather History Date:

Wednesday, October 2, 2013

  Actual Average Record
Temperature  
Mean Temperature 46 °F -  
Max Temperature 59 °F 74 °F 87 °F (1932)
Min Temperature 35 °F 42 °F 27 °F (1950)
Degree Days  
Heating Degree Days 19    
Moisture  
Dew Point 37 °F    
Average Humidity 68    
Maximum Humidity 92    
Minimum Humidity 42    
Precipitation  
Precipitation 0.00 in - - ()
Sea Level Pressure  
Sea Level Pressure 30.09 in    
Wind  
Wind Speed 4 mph (SSW)    
Max Wind Speed 9 mph    
Max Gust Speed -    
Visibility 10 miles    
Events      
Averages and records for this station are not official NWS values.
T = Trace of Precipitation, MM = Missing Value Source: NWS Daily Summary

Daily Weather History Graph

Daily Weather History Graph

Search for Another Location

Airport:

Trip Planner

Search our weather history database for the weather conditions in past years. The results will help you decide how hot, cold, wet, or windy it might be!

Date:

Astronomy

Oct. 02, 2013 Rise Set
Actual Time 6:57 AM PDT 6:34 PM PDT
Civil Twilight 6:27 AM PDT 7:04 PM PDT
Nautical Twilight 5:52 AM PDT 7:38 PM PDT
Astronomical Twilight 5:17 AM PDT 8:13 PM PDT
Moon 4:29 AM PDT (10/2) 5:17 PM PDT (10/2)
Length of Visible Light 12h 36m
Length of Day
11h 37m
Waning Crescent, 6% of the Moon is Illuminated
Oct 2
Waning Crescent
Oct 4
New
Oct 11
First Quarter
Oct 18
Full
Oct 26
Last Quarter

Hourly Weather History & Observations

Time (PDT) Temp. Windchill Dew Point Humidity Pressure Visibility Wind Dir Wind Speed Gust Speed Precip Events Conditions
12:53 AM 44.1 °F 39.0 °F 37.0 °F 76% 30.17 in 10.0 mi SSW 9.2 mph - N/A   Clear
1:53 AM 43.0 °F - 35.1 °F 74% 30.18 in 10.0 mi Calm Calm - N/A   Clear
2:53 AM 41.0 °F 38.0 °F 35.1 °F 79% 30.17 in 10.0 mi South 4.6 mph - N/A   Clear
3:53 AM 39.9 °F 34.5 °F 34.0 °F 79% 30.15 in 10.0 mi SSE 8.1 mph - N/A   Clear
4:53 AM 41.0 °F 38.0 °F 35.1 °F 79% 30.14 in 10.0 mi South 4.6 mph - N/A   Clear
5:53 AM 35.1 °F - 33.1 °F 92% 30.14 in 10.0 mi Calm Calm - N/A   Clear
6:53 AM 37.0 °F 33.3 °F 34.0 °F 89% 30.12 in 10.0 mi SE 4.6 mph - N/A   Clear
7:53 AM 42.1 °F 40.2 °F 37.0 °F 82% 30.12 in 10.0 mi SSE 3.5 mph - N/A   Clear
8:53 AM 46.9 °F - 37.9 °F 71% 30.12 in 10.0 mi South 3.5 mph - N/A   Clear
9:53 AM 50.0 °F - 37.9 °F 63% 30.12 in 10.0 mi WNW 6.9 mph - N/A   Clear
10:53 AM 52.0 °F - 39.0 °F 61% 30.11 in 10.0 mi NNW 4.6 mph - N/A   Clear
11:53 AM 55.0 °F - 39.0 °F 55% 30.08 in 10.0 mi Variable 3.5 mph - N/A   Clear
12:53 PM 57.0 °F - 39.0 °F 51% 30.06 in 10.0 mi West 3.5 mph - N/A   Clear
1:53 PM 57.9 °F - 37.9 °F 47% 30.04 in 10.0 mi Variable 3.5 mph - N/A   Clear
2:53 PM 57.9 °F - 37.0 °F 46% 30.02 in 10.0 mi Calm Calm - N/A   Clear
3:53 PM 57.9 °F - 35.1 °F 42% 30.02 in 10.0 mi Calm Calm - N/A   Clear
4:53 PM 57.9 °F - 35.1 °F 42% 30.02 in 10.0 mi Calm Calm - N/A   Clear
5:53 PM 55.9 °F - 37.9 °F 51% 30.03 in 4.0 mi Calm Calm - N/A   Haze
6:53 PM 54.0 °F - 37.9 °F 55% 30.04 in 10.0 mi Calm Calm - N/A   Mostly Cloudy
7:53 PM 48.9 °F - 39.9 °F 71% 30.04 in 10.0 mi NNE 4.6 mph - N/A   Mostly Cloudy
8:53 PM 46.0 °F - 39.9 °F 79% 30.05 in 10.0 mi Calm Calm - N/A   Clear
9:53 PM 46.0 °F - 39.9 °F 79% 30.07 in 10.0 mi Calm Calm - N/A   Partly Cloudy
10:53 PM 44.1 °F 40.8 °F 39.0 °F 82% 30.08 in 10.0 mi SSW 5.8 mph - N/A   Clear
11:53 PM 44.1 °F 41.5 °F 39.0 °F 82% 30.09 in 10.0 mi SSW 4.6 mph - N/A   Clear